Total_Precipitation_Accumulation
0.00 0.01 0.01 0.01 0.02 0.08 0.39 0.51 0.71 0.73 0.65 0.70 0.53 0.55 0.71 0.67 0.51 0.32 0.21 0.10 0.09 0.07
0.01 0.01 0.01 0.01 0.02 0.03 0.17 0.55 0.66 0.90 0.78 0.63 0.71 0.65 0.74 0.82 0.78 0.63 0.41 0.23 0.17 0.12
0.01 0.01 0.01 0.02 0.02 0.02 0.10 0.35 0.44 0.58 0.79 0.68 0.62 0.67 0.75 0.82 0.78 0.80 0.55 0.30 0.26 0.17
0.00 0.00 0.00 0.02 0.03 0.02 0.05 0.20 0.42 0.28 0.46 0.62 0.52 0.54 0.57 0.64 0.73 0.75 0.70 0.46 0.30 0.20
0.01 0.01 0.01 0.01 0.02 0.02 0.03 0.09 0.26 0.45 0.38 0.48 0.49 0.52 0.52 0.54 0.53 0.60 0.63 0.50 0.34 0.21
0.01 0.00 0.01 0.01 0.02 0.01 0.02 0.04 0.08 0.25 0.36 0.40 0.36 0.39 0.36 0.51 0.47 0.47 0.47 0.41 0.37 0.22
0.02 0.01 0.01 0.02 0.01 0.01 0.01 0.01 0.04 0.08 0.13 0.24 0.34 0.32 0.33 0.27 0.34 0.36 0.38 0.42 0.37 0.26
0.04 0.03 0.01 0.02 0.02 0.01 0.01 0.01 0.01 0.02 0.05 0.08 0.19 0.23 0.26 0.24 0.20 0.25 0.29 0.26 0.27 0.27
0.02 0.02 0.02 0.02 0.02 0.02 0.01 0.01 0.01 0.01 0.01 0.01 0.03 0.24 0.21 0.22 0.23 0.16 0.14 0.13 0.12 0.14
0.03 0.01 0.01 0.03 0.03 0.02 0.02 0.02 0.02 0.01 0.00 0.00 0.01 0.06 0.10 0.20 0.15 0.21 0.24 0.18 0.14 0.12
0.15 0.06 0.01 0.01 0.02 0.02 0.02 0.03 0.02 0.02 0.02 0.02 0.03 0.06 0.05 0.13 0.06 0.15 0.19 0.22 0.25 0.26
0.24 0.21 0.14 0.05 0.01 0.02 0.02 0.03 0.04 0.05 0.05 0.04 0.04 0.09 0.09 0.12 0.05 0.16 0.23 0.24 0.29 0.33
0.50 0.31 0.20 0.14 0.09 0.03 0.02 0.04 0.04 0.05 0.08 0.15 0.10 0.20 0.18 0.16 0.06 0.16 0.26 0.30 0.45 0.67
0.61 0.48 0.33 0.22 0.15 0.11 0.09 0.07 0.09 0.10 0.13 0.16 0.20 0.26 0.32 0.28 0.09 0.12 0.23 0.28 0.31 0.50